Kezdőlap
METAR-TAF:

METAR-TAF

Repülőterek :

Decorah Municipal Airport

Decorah, Iowa, Amerikai Egyesült Államok

földrajzi szélesség: 43-17N, földrajzi hosszúság: 091-44W, magasság: 353 m

Jelenlegi meteorológiai megfigyelések

A jelentés 13 perccel ezelõtt készült, 10:55 UTC
Szélcsend
Hőmérséklet 11°C
Páratartalom 76%
Légköri nyomás 1016 hPa
Látótávolság: 16.1 km
Kevés felhő 11000 lábon

METAR: KDEH 171055Z AUTO 00000KT 10SM FEW110 11/07 A3000 RMK AO2

Idő: 06:08 (11:08 UTC)


TAF: hiányzik

Meteorológiai megfigyelések és előrejelzések több, mint 4000 repülőtéren (METAR és TAF jelentéseket).

A térképen piros és sárga pontok jelzik az elérhető meteorológiai állomásokat.

Mozgassa az egeret a pont fölött, hogy megjelenjen az állomás neve.

Azután kattintson az időjárási megfigyelések és előrejelzések megtekintéséhez.

A térkép megváltoztatása: kattintson a fekete keresztel jelölt zöld gombra ráközelítéshez, a vonallal jelölt zöld gombra távolításhoz, vagy a zöld nyilakra a szomszédos térképek eléréséhez.


METAR-TAF: